Time,TemperatureF,DewpointF,PressureIn,WindDirection,WindDirectionDegrees,WindSpeedMPH,WindSpeedGustMPH,Humidity,HourlyPrecipIn,Conditions,Clouds,dailyrainin,SoftwareType,DateUTC
2013-09-30 00:54:00,39.0,-99.9,-100.00,NNE,15,0.0,5.0,-999,-99.99,,,-99.99,,2013-09-30 08:54:00,
2013-09-30 01:22:00,39.0,-99.9,-100.00,NNE,15,0.0,5.0,-999,-99.99,,,-99.99,,2013-09-30 09:22:00,
2013-09-30 01:33:00,39.0,-99.9,-100.00,NNE,15,0.0,5.0,-999,-99.99,,,-99.99,,2013-09-30 09:33:00,
2013-09-30 05:52:00,27.0,-99.9,-100.00,SSE,152,0.0,0.0,-999,-99.99,,,-99.99,,2013-09-30 13:52:00,
2013-09-30 08:24:00,25.0,-99.9,-100.00,NNE,16,0.0,0.0,-999,-99.99,,,-99.99,,2013-09-30 16:24:00,
2013-09-30 08:34:00,25.0,-99.9,-100.00,NNE,16,0.0,0.0,-999,-99.99,,,-99.99,,2013-09-30 16:34:00,
2013-09-30 08:54:00,25.0,-99.9,-100.00,NNE,16,0.0,0.0,-999,-99.99,,,-99.99,,2013-09-30 16:54:00,
2013-09-30 10:22:00,29.0,-99.9,-100.00,NNE,19,0.0,0.0,-999,-99.99,,,-99.99,,2013-09-30 18:22:00,
2013-09-30 10:32:00,29.0,-99.9,-100.00,NNE,19,0.0,0.0,-999,-99.99,,,-99.99,,2013-09-30 18:32:00,
2013-09-30 11:22:00,35.0,-99.9,-100.00,SSE,158,0.0,5.0,-999,-99.99,,,-99.99,,2013-09-30 19:22:00,
2013-09-30 11:32:00,35.0,-99.9,-100.00,SSE,158,0.0,5.0,-999,-99.99,,,-99.99,,2013-09-30 19:32:00,
2013-09-30 13:23:00,46.0,-99.9,-100.00,SSE,149,0.0,0.0,-999,-99.99,,,-99.99,,2013-09-30 21:23:00,
2013-09-30 13:34:00,46.0,-99.9,-100.00,SSE,149,0.0,0.0,-999,-99.99,,,-99.99,,2013-09-30 21:34:00,
2013-09-30 13:54:00,46.0,-99.9,-100.00,SSE,149,0.0,0.0,-999,-99.99,,,-99.99,,2013-09-30 21:54:00,
2013-09-30 14:24:00,49.0,-99.9,-100.00,North,0,0.0,0.0,-999,-99.99,,,-99.99,,2013-09-30 22:24:00,
2013-09-30 14:34:00,49.0,-99.9,-100.00,North,0,0.0,0.0,-999,-99.99,,,-99.99,,2013-09-30 22:34:00,
2013-09-30 14:44:00,49.0,-99.9,-100.00,North,0,0.0,0.0,-999,-99.99,,,-99.99,,2013-09-30 22:44:00,
2013-09-30 16:23:00,50.0,-99.9,-100.00,East,93,0.0,0.0,-999,-99.99,,,-99.99,,2013-10-01 00:23:00,
2013-09-30 16:32:00,50.0,-99.9,-100.00,East,93,0.0,0.0,-999,-99.99,,,-99.99,,2013-10-01 00:32:00,
2013-09-30 16:43:00,50.0,-99.9,-100.00,East,93,0.0,0.0,-999,-99.99,,,-99.99,,2013-10-01 00:43:00,
2013-09-30 16:52:00,50.0,-99.9,-100.00,East,93,0.0,0.0,-999,-99.99,,,-99.99,,2013-10-01 00:52:00,
2013-09-30 17:22:00,51.0,-99.9,-100.00,South,180,0.0,5.0,-999,-99.99,,,-99.99,,2013-10-01 01:22:00,
2013-09-30 17:33:00,51.0,-99.9,-100.00,South,180,0.0,5.0,-999,-99.99,,,-99.99,,2013-10-01 01:33:00,
2013-09-30 17:52:00,51.0,-99.9,-100.00,South,180,0.0,5.0,-999,-99.99,,,-99.99,,2013-10-01 01:52:00,
2013-09-30 18:55:00,49.0,-99.9,-100.00,NW,307,6.0,10.0,-999,-99.99,,,-99.99,,2013-10-01 02:55:00,
2013-09-30 19:22:00,49.0,-99.9,-100.00,NW,307,6.0,10.0,-999,-99.99,,,-99.99,,2013-10-01 03:22:00,
2013-09-30 19:34:00,49.0,-99.9,-100.00,NW,307,6.0,10.0,-999,-99.99,,,-99.99,,2013-10-01 03:34:00,
2013-09-30 19:44:00,49.0,-99.9,-100.00,NW,307,6.0,10.0,-999,-99.99,,,-99.99,,2013-10-01 03:44:00,
2013-09-30 20:24:00,45.0,-99.9,-100.00,NNE,15,0.0,0.0,-999,-99.99,,,-99.99,,2013-10-01 04:24:00,